www.pogodaiklimat.ru

Погода и климат >> Архив погоды >> Киргизия >> Бишкек


АРХИВ ПОГОДЫ в Бишкеке

Время (UTC), дата Ветер
(напр.,м/с)
 
Видим.   Явления Облачность Т
(С)
Тd
(С)
f
(%)
Тe
(С)
Тes
(С)
Комфортность P
(гПа)
Po
(гПа)
Тmin
(С)
Tmax
(С)
R
(мм)
R24
(мм)
S
(см)
21 16.11 штиль 0 н/о ясно -1.2 -4.8 76 -2 -2 прохладно 1031.6 939.1
00 17.11 штиль 0 н/о ясно -3.6 -7.2 76 -4 -4 прохладно 1031.5 938.3
03 17.11 штиль 0 20 км ясно -2.9 -6.7 75 -4 -3 очень
холодно
1029.2 938.3
06 17.11 СЗ 1 20 км ясно +9.1 -3.0 42 +9 +14 по сезону 1026.6 937.8
09 17.11 СЗ 1 20 км ясно +11.3 -2.7 37 +12 +15 тепло 1025.4 937.4
12 17.11 СЗ 1 20 км 3/0
[Ci fib]
+7.6 -3.3 46 +7 +7 по сезону 1027.6 938.9
15 17.11 ЮЗ 1 н/о ясно +2.4 -7.1 49 +2 +2 по сезону 1029.5 938.4 +11.8
18 17.11 Ю 1 н/о ясно +0.1 -6.2 63 -1 -1 по сезону 1029.1 937.3 +11.8
21 17.11 штиль 0 н/о ясно -1.5 -5.6 74 -2 -2 прохладно 1028.2 936.0
00 18.11 ЮЗ 1 н/о ясно -0.3 -6.1 65 -2 -2 по сезону 1027.5 935.7
03 18.11 Ю 1 20 км ясно +0.2 -5.7 65 -1 -1 прохладно 1027.3 935.7
06 18.11 З 1 20 км 3/0
[Ac trans]
+8.9 -8.2 29 +9 +13 по сезону 1024.0 935.4
09 18.11 С 2 20 км 6/0
[Ac trans Ci fib]
+10.6 -12.7 18 +10 +12 тепло 1022.8 934.6
12 18.11 СВ 1 20 км 8/0
[Ac trans Ci fib]
+6.8 -5.7 40 +7 +7 по сезону 1025.1 935.7
15 18.11 Ю 1 н/о 6/0
[Ci fib]
+3.9 -6.5 47 +3 +3 по сезону 1028.4 937.8 +12.1
18 18.11 З 2 н/о 10/10 600 м
[Sc]
+2.6 -3.7 63 -0 -0 по сезону 1033.3 941.9 +12.1
21 18.11 З 2 н/о слабый снег {дождь} 10/10 600 м
[Sc]
+0.8 -0.3 92 -3 -3 прохладно 1036.8 944.5
00 19.11 З 2 н/о слабый снег {дождь} 10/10 600 м
[Sc]
-2.4 -4.0 89 -6 -6 холодно 1040.5 946.9
03 19.11 С 2 4000 м слабый снег 10/10 600 м
[Sc]
-2.5 -4.1 89 -7 -7 очень
холодно
1042.5 948.6 3
06 19.11 С 2 10 км {снег} 10/10 600 м
[Sc]
-1.4 -3.4 86 -5 -5 очень
холодно
1042.1 948.6 3
09 19.11 С 2 10 км 10/10 600 м
[Sc]
-1.1 -3.8 82 -5 -5 очень
холодно
1041.2 947.9
12 19.11 штиль 0 10 км 10/10 600 м
[Sc]
-0.7 -3.2 83 -2 -2 холодно 1040.7 947.6
15 19.11 СВ 1 н/о 10/10 600 м
[Sc]
-0.6 -3.0 84 -3 -3 холодно 1039.5 946.5 -0.3
18 19.11 С 1 н/о 3/0
[Ac trans]
-2.5 -4.4 87 -5 -5 холодно 1038.9 945.4 -0.3 0.0
21 19.11 штиль 0 н/о ясно -4.1 -5.7 89 -5 -5 холодно 1038.1 944.1
00 20.11 штиль 0 н/о ясно -5.7 -7.5 87 -7 -7 холодно 1037.6 943.1
03 20.11 ЮВ 1 20 км ясно -5.9 -8.1 84 -8 -8 очень
холодно
1037.2 942.6 3
06 20.11 СЗ 1 10 км дым ясно -0.1 -1.8 88 -2 +2 очень
холодно
1035.2 942.8
09 20.11 З 1 10 км дым ясно +4.0 -0.6 72 +3 +6 по сезону 1032.5 941.7
12 20.11 С 1 20 км ясно +1.8 -2.6 73 0 0 прохладно 1033.3 941.7
15 20.11 Ю 1 н/о ясно -1.4 -4.4 80 -3 -3 холодно 1034.5 941.7 +5.6
18 20.11 Ю 1 н/о ясно -3.0 -6.8 75 -5 -5 холодно 1034.0 940.7 +5.6
21 20.11 штиль 0 н/о ясно -4.2 -8.4 72 -5 -5 холодно 1033.3 939.6
00 21.11 штиль 0 н/о ясно -4.8 -9.7 69 -6 -6 холодно 1032.9 939.1
03 21.11 Ю 1 20 км 3/0
[Ci fib]
-3.7 -8.5 69 -6 -5 очень
холодно
1032.7 939.3
06 21.11 В 1 20 км 6/0
[Ci fib]
+5.2 -3.4 54 +5 +8 по сезону 1028.9 938.7
09 21.11 З 1 20 км 4/0
[Ci fib]
+9.6 -0.9 48 +10 +12 тепло 1026.3 937.7
12 21.11 ЮЗ 1 20 км ясно +5.7 -2.3 56 +5 +5 по сезону 1027.8 937.9
15 21.11 Ю 1 н/о ясно +0.4 -5.0 67 -1 -1 прохладно 1029.5 937.8 +9.7
18 21.11 Ю 1 н/о ясно -0.7 -4.9 73 -3 -3 прохладно 1028.8 936.7 +9.7
21 21.11 штиль 0 н/о ясно -3.2 -6.7 77 -4 -4 прохладно 1028.0 935.2
00 22.11 Ю 1 н/о ясно -3.9 -6.8 80 -6 -6 прохладно 1027.5 934.5
03 22.11 ЮВ 1 20 км ясно -1.9 -7.2 67 -4 -4 холодно 1025.8 933.6
06 22.11 В 2 20 км ясно +13.5 -6.4 25 +13 +17 тепло 1020.2 933.2
09 22.11 В 2 20 км ясно +17.6 -3.7 23 +18 +21 тепло 1017.4 931.7
12 22.11 З 1 20 км ясно +8.7 -2.5 45 +9 +9 тепло 1019.6 931.4
15 22.11 Ю 1 н/о ясно +3.6 -6.1 49 +3 +3 по сезону 1020.7 930.7 +18.4
18 22.11 В 1 н/о ясно +0.8 -6.9 56 -1 -1 по сезону 1020.3 929.5 +18.4
21 22.11 штиль 0 н/о ясно -1.0 -7.6 61 -2 -2 по сезону 1020.4 928.9
00 23.11 Ю 1 н/о ясно -2.6 -8.7 63 -4 -4 прохладно 1020.3 928.4
03 23.11 Ю 1 20 км ясно -2.3 -7.4 68 -4 -4 холодно 1020.1 928.4
06 23.11 штиль 0 20 км ясно +12.0 -10.7 19 +12 +17 тепло 1015.3 928.3
09 23.11 СЗ 1 20 км ясно +15.1 -9.0 18 +16 +19 тепло 1013.5 927.5
12 23.11 штиль 0 20 км ясно +8.9 -3.0 43 +9 +9 тепло 1015.9 928.0
15 23.11 ЮВ 1 н/о ясно +3.4 -6.9 47 +3 +3 по сезону 1018.6 928.8 +15.9

 

Местоположение метеостанции Бишкек (город Бишкек, Киргизия): широта 42.85 долгота 74.53 высота над уровнем моря 760 м.

В архиве по умолчанию представлена погода в Бишкеке за последнюю неделю. Архивные данные за месяц целиком и за предыдущие месяцы, начиная с января 2011 года, Вы можете получить, выбрав интересующий диапазон дат из раскрывающегося списка и нажав кнопку "Ввод!".

Внимание! Время в таблицах - всемирное. Для получения местного времени необходимо прибавить поправку, которая в Бишкеке равна 6 ч.

Смотрите также архив погоды в соседних городах и на ближайших метеорологических станциях:

Погода в Байтике (Чуйская область, Киргизия) (22 км)
Погода в Иссык-Ате (город Бишкек, Киргизия) (28 км)
Погода в Яны-Жере (Чуйская область, Киргизия) (46 км)
Погода в Бериктасе (Жамбылская область, Казахстан) (49 км)
Погода в Кара-Балте (Чуйская область, Киргизия) (58 км)
Погода в Тео-Ашуу (Чуйская область, Киргизия) (58 км)
Погода в Токмоке (Чуйская область, Киргизия) (61 км)
Погода в Кордае (Жамбылская область, Казахстан) (66 км)
Погода в Сусамыре (Чуйская область, Киргизия) (90 км)
Погода в Отаре (Жамбылская область, Казахстан) (96 км)

Пояснения к столбцам:

Ветер - указаны скорость ветра в м/с - средняя за 10 мин, порывы в срок и между сроками (в фигурных скобках) и направление, откуда дует ветер: С - северный, СВ - северо-восточный, В - восточный, ЮВ - юго-восточный, Ю - южный, ЮЗ - юго-западный, З - западный, СЗ - северо-западный.
Видимость - горизонтальная дальность видимости в метрах или километрах. При видимости от 1 до 10 км при отсутствии осадков обычно наблюдается дымка, при ухудшении видимости до 1 км и менее - туман. В сухую погоду видимость может ухудшаться дымом, пылью или мглою.
Явления - указаны атмосферные явления, наблюдавшиеся в срок или в последний час перед сроком; фигурными скобками обозначены явления, наблюдавшиеся между сроками (за 1-3 часа до срока); квадратными скобками обозначены град или гололедные отложения с указанием их диаметра в мм.
Облачность - указаны через наклонную черту общая и нижняя облачность в баллах и высота нижней границы облаков в метрах; квадратными скобками обозначены формы облаков: Ci - перистые, Cs - перисто-слоистые, Cc - перисто-кучевые, Ac - высококучевые, As - высокослоистые, Sc - слоисто-кучевые, Ns - слоисто-дождевые, Cu - кучевые, Cb - кучево-дождевые. Подробнее классификацию облаков см. в Атласе облаков (PDF).
T - Температура воздуха - температура, измеренная на высоте 2 м над землей.
Td - Температура точки росы - температура, при понижении до которой содержащийся в воздухе водяной пар достигнет насыщения.
f - Относительная влажность воздуха - влажноcть воздуха, измеренная на высоте 2 м над землей.
Te - Эффективная температура - температура, которую ощущает одетый по сезону человек в тени. Характеристика душности погоды. При расчете учитывается влияние влажности воздуха и скорости ветра на теплоощущения человека.
Tes - Эффективная температура на солнце - температура, которую ощущает человек, с поправкой на солнечный нагрев. Характеристика знойности погоды. Зависит от высоты солнца над горизонтом, облачности и скорости ветра. Ночью, в пасмурную погоду, а также при ветре 12 м/с и более поправка равна нулю.
P - Атмосферное давление - приведенное к уровню моря атмосферное давление.
Po - Атмосферное давление - измеренное на уровне метеостанции атмосферное давление.
Tmin - Минимальная температура - минимум температуры воздуха на высоте 2 м над землей.
Tmax - Максимальная температура - максимум температуры воздуха на высоте 2 м над землей.
R - Количество осадков - Количество выпавших осадков за период времени, мм. При наведении курсора мыши на число - период времени, за который выпало указанное количество осадков.
R24 - Количество осадков - Количество выпавших осадков за 24 часа, мм.
S - Снежный покров - Высота снежного покрова, см. При наведении курсора мыши на число - состояние снежного покрова и степень покрытия местности в баллах.